Location: Muenchen
(48.1800°N, 11.5800°E)
Time: 04:58:36
(UTC+02:00)

ISS - All Passes

Search period start: 24 July 2016 00:00
Search period end: 03 August 2016 00:00
Orbit: 401 x 404 km, 51.6° (Epoch: 23 July)

Date Brightness Start Highest point End Pass type
(mag) Time Alt. Az. Time Alt. Az. Time Alt. Az.
24 Jul - 01:34:56 10° W 01:38:09 54° NNW 01:41:22 10° ENE visible
24 Jul - 03:11:44 10° WNW 03:14:55 45° N 03:18:05 10° E visible
24 Jul - 04:48:14 10° WNW 04:51:29 70° SSW 04:54:44 10° ESE visible
24 Jul - 06:25:41 10° WSW 06:27:26 14° SW 06:29:11 10° SSW daylight
24 Jul - 23:06:11 10° SSW 23:08:57 26° SE 23:11:44 10° E night (unlit)
25 Jul - 00:41:55 10° WSW 00:45:11 72° NNW 00:48:27 10° ENE visible
25 Jul - 02:18:45 10° WNW 02:21:53 43° N 02:25:01 10° ENE visible
25 Jul - 03:55:18 10° WNW 03:58:34 79° NNE 04:01:50 10° ESE visible
25 Jul - 05:32:06 10° W 05:34:45 23° SW 05:37:23 10° SSE daylight
25 Jul - 22:14:12 10° S 22:16:14 16° SE 22:18:17 10° E visible
25 Jul - 23:48:59 10° WSW 23:52:15 78° SSE 23:55:31 10° ENE visible
26 Jul - 01:25:42 10° W 01:28:51 44° N 01:32:00 10° ENE visible
26 Jul - 03:02:22 10° WNW 03:05:36 58° NNE 03:08:49 10° E visible
26 Jul - 04:38:55 10° WNW 04:41:58 37° SW 04:45:01 10° SE visible
26 Jul - 22:56:12 10° SW 22:59:22 49° SSE 23:02:32 10° ENE visible
27 Jul - 00:32:38 10° W 00:35:50 51° NNW 00:39:02 10° ENE visible
27 Jul - 02:09:25 10° WNW 02:12:36 47° N 02:15:47 10° E visible
27 Jul - 03:45:54 10° WNW 03:49:08 62° SSW 03:52:21 10° SE visible
27 Jul - 05:23:45 10° WSW 05:25:01 12° SW 05:26:18 10° SSW daylight
27 Jul - 22:03:40 10° SSW 22:06:33 30° SE 22:09:28 10° E visible
27 Jul - 23:39:36 10° W 23:42:50 66° NNW 23:46:05 10° ENE visible
28 Jul - 01:16:25 10° WNW 01:19:34 43° N 01:22:43 10° ENE visible
28 Jul - 02:52:57 10° WNW 02:56:14 87° NNE 02:59:30 10° ESE visible
28 Jul - 04:29:52 10° W 04:32:20 20° SW 04:34:48 10° S visible
28 Jul - 21:11:31 10° S 21:13:49 18° SE 21:16:08 10° E daylight
28 Jul - 22:46:37 10° WSW 22:49:53 87° SSE 22:53:10 10° ENE visible
29 Jul - 00:23:23 10° WNW 00:26:32 43° N 00:29:41 10° ENE visible
29 Jul - 02:00:01 10° WNW 02:03:16 62° NNE 02:06:31 10° E visible
29 Jul - 03:36:37 10° W 03:39:35 33° SW 03:42:33 10° SSE night (unlit)
29 Jul - 20:20:26 10° SE 20:21:09 11° SE 20:21:51 10° ESE daylight
29 Jul - 21:53:47 10° SW 21:56:59 56° SSE 22:00:12 10° ENE visible
29 Jul - 23:30:19 10° W 23:33:30 49° N 23:36:41 10° ENE visible
30 Jul - 01:07:04 10° WNW 01:10:16 49° N 01:13:28 10° E visible
30 Jul - 02:43:33 10° WNW 02:46:45 54° SSW 02:49:57 10° SE visible
30 Jul - 04:22:29 10° SW 04:22:35 10° SW 04:22:41 10° SW night (unlit)
30 Jul - 21:01:10 10° SSW 21:04:10 34° SE 21:07:09 10° E daylight
30 Jul - 22:37:15 10° W 22:40:29 61° NNW 22:43:43 10° ENE visible
31 Jul - 00:14:05 10° WNW 00:17:14 44° N 00:20:23 10° ENE visible
31 Jul - 01:50:35 10° WNW 01:53:51 85° SSW 01:57:07 10° ESE visible
31 Jul - 03:27:40 10° W 03:29:55 17° SW 03:32:09 10° S night (unlit)
31 Jul - 20:08:52 10° S 20:11:23 21° SE 20:13:55 10° E daylight
31 Jul - 21:44:15 10° WSW 21:47:31 84° NNW 21:50:48 10° ENE visible
31 Jul - 23:21:03 10° WNW 23:24:11 43° N 23:27:20 10° ENE visible
01 Aug - 00:57:39 10° WNW 01:00:55 68° NNE 01:04:09 10° ESE visible
01 Aug - 02:34:18 10° W 02:37:10 28° SW 02:40:02 10° SSE night (unlit)
01 Aug - 19:17:16 10° SSE 19:18:42 12° SE 19:20:08 10° ESE daylight
01 Aug - 20:51:22 10° SW 20:54:36 64° SSE 20:57:50 10° ENE daylight
01 Aug - 22:27:58 10° W 22:31:09 47° N 22:34:19 10° ENE visible
02 Aug - 00:04:42 10° WNW 00:07:55 52° NNE 00:11:07 10° E visible
02 Aug - 01:41:12 10° WNW 01:44:22 47° SSW 01:47:30 10° SE visible
02 Aug - 19:58:40 10° SW 20:01:45 39° SSE 20:04:49 10° ENE daylight
02 Aug - 21:34:54 10° W 21:38:07 57° NNW 21:41:22 10° ENE visible
02 Aug - 23:11:43 10° WNW 23:14:52 45° N 23:18:02 10° E visible
